Location: Cheching
(60.0667°N, 164.2167°W)
Time: 08:08:26
(UTC+00:00)

XW-2D - Pass Details

Date: 16 January 2021
Orbit: 505 x 525 km, 97.5° (Epoch: 09 March)

Event Time Altitude Azimuth Distance (km) Brightness Sun altitude
Rises 03:54:50 0° 171° (S) 2,613 ? -9.5°
Reaches altitude 10° 03:56:55 10° 175° (S) 1,735 ? -9.8°
Maximum altitude 04:00:38 62° 257° (WSW) 585 ? -10.2°
Drops below altitude 10° 04:04:24 10° 339° (NNW) 1,761 ? -10.6°
Sets 04:06:32 0° 343° (NNW) 2,657 ? -10.9°
